This is the latest recevied weather packets stored in our database for station/object WB3IGR. If no packets are shown the sender has not sent any weather packets the latest 10 day(s).
| Time | Temp. | Humidity | Pressure | Rain* | Wind** | Luminosity | Snow |
|---|---|---|---|---|---|---|---|
| 1777463357 | 11.67° C | 77% | 1016.7 hPa | 0 mm | - | 25 W/m² | - |
| 1777463054 | 11.11° C | 76% | 1016.5 hPa | 0 mm | - | 35 W/m² | - |
| 1777462749 | 11.11° C | 76% | 1016.6 hPa | 0 mm | - | 35 W/m² | - |
| 1777462445 | 11.11° C | 76% | 1016.5 hPa | 0 mm | - | 28 W/m² | - |
| 1777462142 | 11.11° C | 76% | 1016.7 hPa | 0 mm | - | 23 W/m² | - |
| 1777461838 | 11.11° C | 78% | 1016.7 hPa | 0 mm | - | 22 W/m² | - |
| 1777461534 | 11.11° C | 78% | 1016.6 hPa | 0 mm | - | 21 W/m² | - |
| 1777461230 | 11.11° C | 77% | 1016.9 hPa | 0 mm | - | 16 W/m² | - |
| 1777460925 | 11.11° C | 78% | 1016.9 hPa | 0 mm | - | 10 W/m² | - |
| 1777460621 | 11.11° C | 76% | 1017 hPa | 0 mm | - | 7 W/m² | - |
| 1777460317 | 11.11° C | 76% | 1016.8 hPa | 0 mm | - | 6 W/m² | - |
| 1777460014 | 11.11° C | 77% | 1016.9 hPa | 0 mm | - | 5 W/m² | - |
| 1777459711 | 11.11° C | 75% | 1017 hPa | 0 mm | - | 3 W/m² | - |
| 1777459407 | 11.11° C | 75% | 1017 hPa | 0 mm | - | 3 W/m² | - |
| 1777459105 | 11.11° C | 75% | 1016.8 hPa | 0 mm | - | 3 W/m² | - |
| 1777458803 | 11.11° C | 77% | 1016.8 hPa | 0 mm | - | 1 W/m² | - |
| 1777458499 | 11.11° C | 77% | 1016.8 hPa | 0 mm | - | 0 W/m² | - |
| 1777458196 | 11.11° C | 78% | 1016.5 hPa | 0 mm | - | 0 W/m² | - |
| 1777457891 | 11.11° C | 78% | 1016.6 hPa | 0 mm | - | 0 W/m² | - |
| 1777457587 | 11.11° C | 77% | 1016.7 hPa | 0 mm | - | 0 W/m² | - |
| 1777457282 | 11.11° C | 76% | 1016.9 hPa | 0 mm | - | 0 W/m² | - |
| 1777456978 | 11.11° C | 76% | 1016.6 hPa | 0 mm | - | 0 W/m² | - |
| 1777456673 | 11.11° C | 77% | 1016.6 hPa | 0 mm | - | 0 W/m² | - |
| 1777456368 | 11.11° C | 76% | 1016.7 hPa | 0 mm | - | 0 W/m² | - |
| 1777456065 | 11.11° C | 76% | 1016.7 hPa | 0 mm | - | 0 W/m² | - |
* Rain latest hour (hover to see other rain measurements)
** Current wind speed in m/s (hover to see current wind gust speed)